Zurück zum Katalog

METEOR 2-8

AktivWetterPO
NORAD 13113·PAYLOAD·🇷🇺 Russia

Gestartet Mar 25, 1982 von Plesetsk Cosmodrome

Loading…

Nächste Überflüge (nächste 24 Stunden)

TLE

AktuellSource: Space-Track

Epoche: Sep 14, 2026, 08:19 UTC

1 13113U 82025A   26257.34691469  .00000021  00000-0  57213-5 0  9996
2 13113  82.5412  27.0888 0017606 350.9630  38.1521 13.85604000247990

Verfolge METEOR 2-8 in Echtzeit mit AllMySat

Download on the App Store